Karaton

Kazakhstan     46˚26′20″N   53˚29′15″E
temp.,
°C
wind,
m/s
gust,
m/s
humid.,
%
clouds,
%
prec.,
mm/h
press.,
hPa
HPBL,
m
29 november, sun
sun2923:00−1˚ese610740 0.0 1040238
02:00−1˚se611680 0.0 1040264
05:00−1˚ese611660 0.0 1041241
08:00−1˚ese711653 0.0 1040259
11:00+2˚ese812622 0.0 1042500
14:00+5˚ese912590 0.0 1041729
17:00+4˚ese7126220 0.0 1041709
20:00+2˚e8147298 0.0 1041402
30 november, mon
mon3023:00+1˚ese8157796 0.0 1042476
02:00ese9147598 0.0 1041520
05:00−1˚e8147694 0.0 1041448
08:00−2˚e91373100 0.0 1040462
11:00−1˚e91365100 0.0 1041518
14:00e81157100 0.0 1040634
17:00−1˚e9125874 0.0 1039552
20:00−3˚e9146412 0.0 1039455
1 december, tue
tue123:00−3˚e8136147 0.0 1039493
02:00−4˚e9136496 0.0 1038460
05:00−5˚e8126498 0.0 1037437
08:00−6˚e8126454 0.0 1037424
11:00−5˚e9125643 0.0 1037439
14:00−2˚e8114886 0.0 1036527
17:00−3˚e8115193 0.0 1035531
20:00−5˚e81259100 0.0 1035447
2 december, wed
wed223:00−5˚e71058100 0.0 1036398
02:00−7˚e696195 0.0 1035334
05:00−8˚ene696478 0.0 1035284
08:00−8˚ene686727 0.0 1035251
11:00−7˚ene686018 0.0 1035285
14:00−4˚ene564610 0.0 1035408
17:00−4˚ene57436 0.0 1034420
20:00−6˚ene47510 0.0 1034224
3 december, thu
thu323:00−7˚ene45600 0.0 1035149
02:00−8˚ne45660 0.0 1034129
05:00−9˚ne45710 0.0 103499
08:00−10˚ne46740 0.0 1035144
11:00−8˚ne45610 0.0 1036312
14:00−5˚ne44470 0.0 1035430
17:00−5˚nne46430 0.0 1034432
20:00−7˚nne45510 0.0 1035116